Location: Huntsville
(34.7300°N, 86.5860°W)
Time: 01:25:41
(UTC-05:00)

N. Korean satellite - Pass Details

Date: 30 March 2019
Orbit: 457 x 508 km, 97.2° (Epoch: 19 April)

Event Time Altitude Azimuth Distance (km) Brightness Sun altitude
Rises 05:47:37 0° 38° (NE) 2,562 11.1 -10.7°
Reaches altitude 10° 05:51:05 10° 74° (ENE) 1,688 10.9 -10.0°
Maximum altitude 05:52:14 11° 93° (E) 1,613 10.6 -9.8°
Drops below altitude 10° 05:53:24 10° 112° (ESE) 1,692 10.3 -9.6°
Sets 05:56:52 0° 148° (SSE) 2,580 10.6 -8.9°
